CAPE
1 0 71 5 9 0 78 118 65 24 2 6 0 0 0 0 0 0 0 0 0 0 0 0 0 0 0 0 0 0 0 0 0 0 0 0 0 0 0 0 0 0 0 0 0
19 10 40 11 18 0 43 87 59 25 13 1 0 0 0 0 0 0 0 0 0 0 0 0 0 0 0 0 0 0 0 0 0 0 0 0 0 0 0 0 0 0 0 0 0
26 11 1 28 22 4 13 57 47 13 1 0 0 0 0 0 0 0 0 0 0 0 0 0 0 0 0 0 0 0 0 0 0 0 0 0 0 0 0 0 0 0 0 0 0
22 26 7 51 7 9 1 22 13 11 0 0 0 0 0 0 0 0 0 0 0 0 0 0 0 0 0 0 0 0 0 0 0 0 0 0 0 0 0 0 0 0 0 0 0
11 45 32 27 19 15 9 24 19 0 0 0 0 0 0 0 0 0 0 0 0 0 0 0 0 0 0 0 0 0 0 0 0 0 0 0 0 0 0 0 0 0 0 0 0
11 47 23 1 50 9 17 17 52 1 0 0 0 0 0 0 0 0 0 0 0 0 0 0 0 0 0 0 0 0 0 0 0 0 0 0 0 0 0 0 0 0 0 0 0
10 47 18 32 47 24 8 26 70 6 0 0 0 0 0 0 0 0 0 0 0 0 0 0 0 0 0 0 0 0 0 0 0 0 0 0 0 0 0 0 0 0 0 0 0
0 2 13 30 30 27 10 37 73 1 1 9 0 0 0 0 0 0 0 0 0 0 0 0 0 0 0 0 0 0 0 0 0 0 0 0 0 0 0 0 0 0 0 0 0
0 1 44 7 17 45 18 61 17 2 0 0 0 0 0 0 0 0 0 0 0 0 0 0 0 0 0 0 0 0 0 0 0 0 0 0 0 0 0 0 0 0 0 0 0
3 0 0 11 50 73 59 108 10 2 0 1 0 0 0 0 0 0 0 0 0 0 0 0 0 0 0 0 0 0 0 0 0 0 0 0 0 0 0 0 0 0 0 0 0
4 8 0 12 64 71 150 71 18 6 0 0 0 0 0 0 0 0 0 0 0 0 0 0 0 0 0 0 0 0 0 0 0 0 0 0 0 0 0 0 0 0 0 0 0
8 12 1 37 126 72 23 0 0 0 2 0 0 0 0 0 0 0 0 0 0 0 0 0 0 0 0 0 0 0 0 0 0 0 0 0 0 0 0 0 0 0 0 0 0
6 23 0 87 102 73 0 0 0 0 0 0 0 0 0 0 0 0 0 0 0 0 0 0 0 0 0 0 0 0 0 0 0 0 0 0 0 0 0 0 0 0 0 0 0
1 43 4 60 138 21 1 0 0 0 0 0 0 0 0 0 0 0 0 0 0 0 0 0 0 0 0 0 0 0 0 0 0 0 0 0 0 0 0 0 0 0 0 0 0
3 51 23 87 45 1 0 0 0 0 0 0 0 0 0 0 0 0 0 0 0 0 0 0 0 0 0 0 0 0 0 0 0 0 0 0 0 0 0 0 0 0 0 0 0
3 18 35 34 4 0 0 0 0 0 0 0 0 0 0 0 0 0 0 0 0 0 0 0 0 0 0 0 0 0 0 0 0 0 0 0 0 0 0 0 0 0 0 0 0
2 42 92 132 1 0 0 4 0 0 0 0 0 0 0 0 0 0 0 0 0 0 0 0 0 0 0 0 0 0 0 0 0 0 0 0 0 0 0 0 0 0 0 0 0
2 78 109 48 3 0 10 0 0 0 0 0 0 0 0 0 0 0 0 0 0 0 0 0 0 0 0 0 0 0 0 0 0 0 0 0 0 0 0 0 0 0 0 0 0
4 118 96 69 0 0 6 0 0 0 0 0 0 0 0 0 0 0 0 0 0 0 0 0 0 0 0 0 0 0 0 0 0 0 0 0 0 0 0 0 0 0 0 0 0
19 68 83 21 0 8 1 0 0 0 0 0 0 0 0 0 0 0 0 0 0 0 0 0 0 0 0 0 0 0 0 0 0 0 0 0 0 0 0 0 0 0 0 0 0
8 78 33 25 2 7 0 0 0 0 0 0 0 0 0 0 0 0 0 0 0 0 0 0 0 0 0 0 0 0 0 0 0 0 0 0 0 0 0 0 0 0 0 0 0
0 1 26 4 0 1 0 0 0 0 0 0 0 0 0 0 0 0 0 0 0 0 0 0 0 0 0 0 0 0 0 0 0 0 0 0 0 0 0 0 0 0 0 0 0
0 0 39 6 0 0 0 0 0 0 0 0 0 0 0 0 0 0 0 0 0 0 0 0 0 0 0 0 0 0 0 0 0 0 0 0 0 0 0 0 0 0 0 0 0
0 0 0 5 0 0 0 0 0 0 0 0 0 0 0 0 0 0 0 0 0 0 0 0 0 0 0 0 0 0 0 0 0 0 0 0 0 0 0 0 0 0 0 0 0
0 0 0 0 0 0 0 0 0 0 0 0 0 0 0 0 0 0 0 0 0 0 0 0 0 0 0 0 0 0 0 0 0 0 0 0 0 0 0 0 0 0 0 0 0
0 0 0 2 2 0 0 0 0 0 0 0 0 0 0 0 0 0 0 0 0 0 0 0 0 0 0 0 0 0 0 0 0 0 0 0 0 0 0 0 0 0 0 0 0
1 0 0 2 1 0 0 0 0 0 0 0 0 0 0 0 0 0 0 0 0 0 0 0 0 0 0 0 0 0 0 0 0 0 0 0 0 0 0 0 0 0 0 0 0
CIN
-33 0 0 -11 -6 0 -2 0 -1 -17 -5 -12 0 0 0 0 0 0 0 0 0 0 0 0 0 0 0 0 0 0 0 0 0 0 0 0 0 0 0 0 0 0 0 0 0
-10 -26 -1 -6 -5 -2 -5 0 -2 -18 -54 0 0 0 0 0 0 0 0 0 0 0 0 0 0 0 0 0 0 0 0 0 0 0 0 0 0 0 0 0 0 0 0 0 0
0 -30 0 -1 -5 -8 -3 -1 0 -76 -2 0 0 0 0 0 0 0 0 0 0 0 0 0 0 0 0 0 0 0 0 0 0 0 0 0 0 0 0 0 0 0 0 0 0
-1 -3 0 -3 -12 -16 -9 0 -9 -20 0 0 0 0 0 0 0 0 0 0 0 0 0 0 0 0 0 0 0 0 0 0 0 0 0 0 0 0 0 0 0 0 0 0 0
-3 0 0 -6 -4 -13 -20 -3 -1 0 0 0 0 0 0 0 0 0 0 0 0 0 0 0 0 0 0 0 0 0 0 0 0 0 0 0 0 0 0 0 0 0 0 0 0
-16 -9 -11 -2 -1 -14 -21 -7 -14 -6 0 0 0 0 0 0 0 0 0 0 0 0 0 0 0 0 0 0 0 0 0 0 0 0 0 0 0 0 0 0 0 0 0 0 0
-10 -14 -12 -20 -2 -8 -16 -20 -38 -24 0 0 0 0 0 0 0 0 0 0 0 0 0 0 0 0 0 0 0 0 0 0 0 0 0 0 0 0 0 0 0 0 0 0 0
0 -9 -4 -1 0 -5 -17 -26 0 -5 -1 0 0 0 0 0 0 0 0 0 0 0 0 0 0 0 0 0 0 0 0 0 0 0 0 0 0 0 0 0 0 0 0 0 0
0 0 -31 -30 -4 -5 -18 -6 -31 -23 0 0 0 0 0 0 0 0 0 0 0 0 0 0 0 0 0 0 0 0 0 0 0 0 0 0 0 0 0 0 0 0 0 0 0
0 -1 0 -6 -4 -6 -6 -5 -90 -43 0 -4 0 0 0 0 0 0 0 0 0 0 0 0 0 0 0 0 0 0 0 0 0 0 0 0 0 0 0 0 0 0 0 0 0
0 -3 0 -68 -2 -1 0 -7 0 -1 0 0 0 0 0 0 0 0 0 0 0 0 0 0 0 0 0 0 0 0 0 0 0 0 0 0 0 0 0 0 0 0 0 0 0
0 -1 -2 -9 0 0 -13 0 0 0 0 0 0 0 0 0 0 0 0 0 0 0 0 0 0 0 0 0 0 0 0 0 0 0 0 0 0 0 0 0 0 0 0 0 0
0 -2 -4 -3 -3 -1 0 0 0 0 0 0 0 0 0 0 0 0 0 0 0 0 0 0 0 0 0 0 0 0 0 0 0 0 0 0 0 0 0 0 0 0 0 0 0
0 -1 -8 -5 0 -11 -4 0 0 0 0 0 0 0 0 0 0 0 0 0 0 0 0 0 0 0 0 0 0 0 0 0 0 0 0 0 0 0 0 0 0 0 0 0 0
-9 -5 0 -10 -2 0 0 0 0 0 0 0 0 0 0 0 0 0 0 0 0 0 0 0 0 0 0 0 0 0 0 0 0 0 0 0 0 0 0 0 0 0 0 0 0
0 -3 0 -1 -56 0 0 0 0 0 0 0 0 0 0 0 0 0 0 0 0 0 0 0 0 0 0 0 0 0 0 0 0 0 0 0 0 0 0 0 0 0 0 0 0
-1 -3 -38 -2 0 0 0 -14 -1 0 0 0 0 0 0 0 0 0 0 0 0 0 0 0 0 0 0 0 0 0 0 0 0 0 0 0 0 0 0 0 0 0 0 0 0
-2 -1 -4 -5 -24 0 -5 0 0 0 0 0 0 0 0 0 0 0 0 0 0 0 0 0 0 0 0 0 0 0 0 0 0 0 0 0 0 0 0 0 0 0 0 0 0
-1 0 0 -5 0 0 -1 0 0 0 0 0 0 0 0 0 0 0 0 0 0 0 0 0 0 0 0 0 0 0 0 0 0 0 0 0 0 0 0 0 0 0 0 0 0
-31 0 0 -11 0 -5 0 0 0 0 0 0 0 0 0 0 0 0 0 0 0 0 0 0 0 0 0 0 0 0 0 0 0 0 0 0 0 0 0 0 0 0 0 0 0
-10 -1 -3 -11 -1 0 0 0 0 0 0 0 0 0 0 0 0 0 0 0 0 0 0 0 0 0 0 0 0 0 0 0 0 0 0 0 0 0 0 0 0 0 0 0 0
0 0 -4 -1 0 0 0 0 0 0 0 0 0 0 0 0 0 0 0 0 0 0 0 0 0 0 0 0 0 0 0 0 0 0 0 0 0 0 0 0 0 0 0 0 0
0 0 -5 -2 0 0 0 0 0 0 0 0 0 0 0 0 0 0 0 0 0 0 0 0 0 0 0 0 0 0 0 0 0 0 0 0 0 0 0 0 0 0 0 0 0
0 0 0 0 0 0 0 0 0 0 0 0 0 0 0 0 0 0 0 0 0 0 0 0 0 0 0 0 0 0 0 0 0 0 0 0 0 0 0 0 0 0 0 0 0
0 0 0 0 0 0 0 0 0 0 0 0 0 0 0 0 0 0 0 0 0 0 0 0 0 0 0 0 0 0 0 0 0 0 0 0 0 0 0 0 0 0 0 0 0
0 0 0 0 0 0 0 0 0 0 0 0 0 0 0 0 0 0 0 0 0 0 0 0 0 0 0 0 0 0 0 0 0 0 0 0 0 0 0 0 0 0 0 0 0
0 0 0 0 0 0 0 0 0 0 0 0 0 0 0 0 0 0 0 0 0 0 0 0 0 0 0 0 0 0 0 0 0 0 0 0 0 0 0 0 0 0 0 0 0
Wind_Speed
43 40 46 43 42 43 39 37 35 33 32 27 24 26 23 21 21 25 28 27 24 16 17 17 15 12 14 15 16 15 19 21 17 14 13 10 10 16 17 10 15 17 9 1 16
40 44 44 45 42 43 41 37 35 35 34 26 27 26 25 24 26 33 27 27 24 15 17 16 13 9 21 19 18 18 21 20 19 17 11 11 10 10 13 12 14 14 9 13 17
36 42 44 44 41 42 42 39 35 31 33 27 24 25 21 22 28 34 30 26 20 16 19 18 13 15 6 18 19 18 22 21 19 21 10 9 10 16 7 17 15 5 7 13 15
38 38 40 41 40 39 41 38 36 33 28 29 23 22 19 23 32 25 21 21 18 18 15 15 14 16 16 15 18 21 21 21 20 17 11 9 10 14 14 17 8 6 12 12 15
37 37 35 38 38 38 39 37 35 33 30 27 23 22 21 31 30 19 21 18 18 19 21 18 15 16 16 17 20 19 21 20 19 16 13 11 13 15 17 15 4 5 9 11 14
37 42 37 34 40 37 36 36 32 31 30 26 23 24 26 35 21 18 18 19 19 21 22 21 19 19 18 19 22 11 19 20 17 17 16 13 15 14 17 11 4 7 11 11 12
36 40 37 34 37 35 34 34 31 28 26 25 23 24 30 30 21 18 18 21 18 22 22 23 18 17 15 18 17 14 14 16 16 18 21 15 19 18 14 8 5 6 7 9 10
34 36 43 37 35 32 31 30 29 26 22 20 21 26 30 21 19 17 18 22 19 20 23 20 20 19 17 15 15 15 14 27 16 21 15 21 22 20 13 10 9 6 5 6 9
34 38 44 40 37 31 29 27 24 23 23 21 25 26 30 23 24 20 17 22 20 21 20 18 19 21 18 14 18 20 17 22 18 14 15 12 19 22 15 13 11 8 7 6 5
32 39 41 45 38 30 30 26 21 21 20 18 24 29 35 34 26 19 16 18 20 20 19 21 22 22 22 21 24 22 20 19 18 13 15 12 17 22 19 16 16 14 10 8 7
35 36 39 50 43 28 29 29 25 28 33 35 38 34 31 27 23 26 21 18 21 23 26 24 25 29 23 22 20 19 22 21 24 20 18 16 18 24 22 23 24 21 21 13 10
36 37 38 48 35 29 31 38 31 33 42 33 31 32 26 26 26 28 22 26 27 30 24 26 33 25 22 22 20 19 21 24 21 22 22 23 30 29 27 27 27 25 28 21 21
38 39 36 33 36 29 34 32 24 22 31 31 32 37 34 31 32 27 25 27 29 30 30 31 29 24 23 25 25 23 23 23 26 19 22 25 34 31 30 32 30 29 25 25 17
39 45 33 37 36 29 36 28 26 23 35 36 34 32 34 32 36 27 23 26 29 34 29 30 27 25 26 27 23 27 19 20 20 22 29 21 35 32 30 32 36 35 31 27 20
38 47 35 38 37 36 26 28 25 26 53 33 35 23 29 37 31 36 27 27 31 29 28 31 29 27 29 27 22 24 18 16 17 22 24 26 32 32 28 32 32 35 31 25 20
38 41 34 38 34 33 27 27 26 38 49 34 35 36 35 35 34 30 33 30 26 30 31 29 24 29 29 26 22 17 16 15 18 23 34 26 28 36 31 27 29 31 28 24 22
37 58 60 43 36 36 29 30 33 48 27 35 41 41 41 40 37 38 36 34 33 35 36 30 29 30 26 25 23 19 18 25 28 29 32 23 28 40 27 28 27 28 28 22 17
38 49 45 36 31 38 35 34 40 42 37 25 34 37 43 37 39 44 42 37 36 33 30 34 38 28 26 27 26 23 22 26 33 31 31 25 34 35 29 36 26 25 25 20 16
39 55 57 46 37 39 40 42 40 36 36 29 29 38 40 40 34 39 46 43 38 34 34 35 35 27 27 26 23 26 29 21 23 25 31 30 32 35 28 27 25 25 23 19 13
44 54 60 38 41 45 43 45 36 32 32 27 33 36 43 45 41 42 46 49 43 38 33 32 35 29 28 23 28 29 22 28 26 34 38 33 33 28 27 29 27 25 21 19 15
43 48 54 48 43 44 54 46 36 32 29 29 29 32 37 40 41 44 44 39 42 38 33 30 31 32 29 34 31 26 30 28 26 28 34 38 36 30 30 25 21 20 19 17 15
43 50 43 45 49 49 54 43 35 32 29 30 28 26 34 39 43 43 45 34 37 34 35 32 32 34 36 29 30 31 33 31 34 34 33 33 37 24 22 23 21 22 19 15 13
44 41 39 43 53 53 46 41 39 35 33 28 28 28 27 36 41 44 45 39 28 36 35 28 33 37 36 36 32 37 34 34 31 29 36 36 36 24 18 15 14 14 16 15 15
45 43 40 53 45 49 51 49 39 43 35 31 27 27 28 33 36 38 37 36 32 34 31 27 30 39 45 44 33 37 35 33 35 38 36 50 36 31 29 25 21 19 17 15 15
44 42 38 57 53 53 48 45 41 38 35 32 28 30 29 31 37 36 33 32 34 34 34 34 41 35 36 35 33 36 36 33 35 41 38 53 44 35 29 24 20 18 19 22 23
40 40 35 48 45 49 48 47 42 35 33 36 30 30 30 30 31 35 31 33 36 32 34 35 40 37 37 30 30 34 34 35 37 41 43 47 59 29 28 27 29 30 28 29 28
35 29 36 47 48 48 53 49 44 37 37 38 28 28 32 31 30 30 29 29 30 35 35 35 35 35 48 36 32 42 40 38 42 42 41 50 59 32 32 30 30 29 28 27 25
Wind_Direction
242 246 236 233 232 229 229 230 226 230 233 233 234 236 240 242 247 249 248 251 252 257 257 261 268 281 278 271 271 270 256 248 254 252 254 246 249 242 245 257 254 253 287 112 119
246 245 241 232 231 228 228 227 228 227 228 232 232 242 242 243 247 245 250 246 245 249 252 255 262 271 261 269 264 260 253 253 262 260 239 244 246 249 255 258 266 264 294 112 124
247 244 243 231 230 228 228 228 228 229 227 231 234 234 233 238 245 247 246 247 242 246 252 255 256 260 257 264 261 259 255 259 267 253 242 228 246 257 247 255 261 263 113 123 134
247 244 241 230 230 228 227 228 228 228 230 227 232 229 235 238 239 252 243 239 238 243 247 250 250 255 252 267 267 257 260 262 266 256 242 234 246 256 256 264 275 138 130 131 141
244 239 239 234 230 229 225 226 226 226 224 225 226 229 230 233 243 263 243 232 238 241 243 245 243 253 251 253 267 264 260 265 263 250 247 251 255 258 257 272 259 141 139 139 144
246 234 238 238 229 227 224 225 223 224 224 224 224 226 236 235 258 263 241 227 238 239 242 243 251 254 257 252 257 280 263 265 267 247 247 250 259 258 257 270 208 150 148 148 148
244 236 234 237 230 224 225 223 221 219 220 221 224 234 235 233 258 255 241 235 238 239 239 245 251 254 257 254 257 266 256 270 268 254 249 251 257 255 255 254 198 183 164 159 159
254 235 227 229 230 220 222 217 217 214 213 219 221 232 236 252 256 252 242 236 239 245 246 245 249 252 259 254 255 254 260 246 265 250 261 254 253 254 251 237 237 217 211 178 171
252 239 225 227 228 216 216 208 206 207 211 218 221 229 229 250 236 240 243 228 230 242 250 244 247 247 254 241 246 251 246 248 256 257 263 253 263 255 252 245 244 230 199 211 217
255 247 232 220 224 215 206 194 194 194 204 220 230 230 238 228 232 236 240 227 227 231 239 240 246 243 246 239 237 243 248 247 249 253 256 244 262 262 252 250 252 254 252 246 233
255 247 238 218 217 202 184 186 196 213 214 222 222 234 227 229 232 230 235 227 231 231 235 240 241 237 239 246 249 252 247 254 253 261 257 249 254 262 256 255 258 260 262 261 245
248 243 235 214 213 188 189 203 209 219 211 225 231 232 224 215 226 225 225 228 228 228 234 240 242 243 239 244 248 251 247 253 264 261 260 262 258 260 259 257 259 262 263 268 271
243 237 229 215 208 193 201 205 202 189 217 234 229 229 218 219 227 222 220 231 227 229 232 238 247 241 239 242 244 250 250 255 257 262 266 265 261 260 261 259 263 264 268 269 268
243 226 217 207 200 187 212 200 192 210 224 228 224 231 222 223 227 226 223 230 234 230 233 244 248 237 240 240 241 246 255 261 260 251 259 265 261 261 263 261 259 261 264 268 269
240 217 209 197 207 200 195 193 189 220 224 225 223 235 224 223 226 227 232 238 230 232 234 239 239 237 239 241 241 250 252 258 262 259 261 262 264 264 268 265 264 263 264 265 264
239 216 195 195 207 194 185 191 208 221 228 225 219 221 218 226 230 217 223 242 241 235 238 242 251 240 243 244 241 245 242 263 268 266 261 259 262 262 262 266 267 269 271 265 263
230 204 200 207 202 186 177 190 212 219 218 224 217 215 217 223 225 213 215 222 224 225 229 240 244 243 244 240 242 234 223 254 259 258 263 268 263 260 267 268 272 274 274 271 264
228 209 206 212 192 182 184 199 219 219 218 226 216 209 220 218 228 222 219 222 230 232 229 231 238 237 241 241 237 230 231 249 254 258 262 268 264 267 268 263 273 279 283 279 268
226 206 206 210 188 184 186 208 224 216 216 215 205 208 223 221 227 225 224 222 228 230 233 232 239 241 243 244 231 238 240 252 264 271 266 267 270 267 272 271 272 274 277 279 277
212 204 207 208 192 189 198 219 226 215 207 204 219 216 218 216 224 223 223 228 228 229 232 239 239 243 242 246 245 243 239 248 259 259 262 269 269 270 271 270 269 271 273 278 279
213 206 210 205 192 195 212 220 223 215 201 215 224 222 223 214 224 224 226 237 224 227 232 234 242 241 240 240 238 241 240 251 253 262 263 266 270 271 267 273 269 271 274 278 281
214 207 208 200 202 206 210 221 218 212 212 230 230 230 220 217 225 226 229 240 221 221 231 236 241 239 238 251 251 248 245 243 250 256 263 271 268 282 275 273 277 278 281 282 290
208 210 209 194 206 205 210 219 217 213 214 222 227 229 223 221 229 231 233 234 221 220 224 229 242 239 243 249 250 246 248 245 253 261 259 262 268 268 276 285 288 287 291 293 296
208 208 214 205 213 200 205 213 217 219 219 227 226 224 218 225 233 229 233 233 226 225 226 233 246 242 241 245 245 246 243 246 247 255 262 256 265 267 271 275 282 289 292 296 297
211 219 221 203 210 203 205 208 215 214 223 220 226 221 219 227 228 233 231 230 227 228 227 233 244 248 254 254 247 249 247 245 246 251 254 240 265 265 270 273 278 286 293 295 297
215 221 230 205 202 202 207 211 211 214 214 212 224 217 221 225 217 223 226 228 223 227 222 232 244 245 248 253 251 250 249 245 247 254 260 265 262 275 269 274 278 284 289 291 292
228 235 225 206 205 207 211 206 211 213 223 219 222 220 225 232 234 235 236 233 230 223 228 229 237 245 246 251 257 255 248 248 254 255 258 261 240 277 278 277 279 284 287 288 290